Powrót do katalogu

QPS-SAR-8 AMATERU-IV

AktywnyNaukaSSO
NORAD 60542·PAYLOAD·🇯🇵 Japan

Wystrzelony Aug 16, 2024 z Vandenberg Space Force Base

Loading…

Następne Przeloty (najbliższe 24 godziny)

TLE

ŚwieżeSource: Space-Track

Epoka: Sep 14, 2026, 04:20 UTC

1 60542U 24149CC  26257.18121033  .00004064  00000-0  29173-3 0  9997
2 60542  97.6598 335.6040 0003705 153.0457 207.0962 15.04868615113650

Śledź QPS-SAR-8 AMATERU-IV w czasie rzeczywistym z AllMySat

Download on the App Store